Wind_Speed
18 18 18 18 18 17 17 16 13 11 10 11 10 11 12 11 12 13 13 13 14 15 16 17 17 17 17 17 18 19 19 18 19 18 17 18 17 15 14 11 11 10 10
20 20 20 19 17 16 16 16 13 12 11 10 10 10 11 11 12 13 14 14 14 15 15 14 15 16 17 18 19 21 22 22 22 21 21 21 19 17 16 14 12 10 10
21 21 21 20 18 17 17 15 12 12 12 11 11 10 10 10 12 15 16 15 15 15 14 14 14 15 17 19 21 23 24 25 24 24 24 24 22 20 19 18 16 14 13
20 20 20 19 18 17 17 14 12 13 13 12 11 10 10 9 11 14 17 17 17 16 16 16 17 18 18 19 22 24 26 26 27 27 27 27 25 23 23 23 21 20 18
20 19 18 19 19 18 16 12 12 13 13 13 11 11 11 10 10 13 17 19 19 19 19 19 20 21 22 22 24 25 26 28 29 30 30 29 28 26 25 25 24 24 23
20 19 18 19 19 19 15 12 13 13 12 12 12 13 13 13 12 12 15 18 20 21 22 23 24 24 25 27 28 28 27 29 31 30 29 29 29 29 28 28 27 28 28
18 18 18 19 19 19 15 12 13 13 12 12 13 14 15 15 15 16 17 18 19 21 23 24 24 25 25 27 28 29 28 29 29 28 27 27 29 31 32 32 33 33 33
18 17 18 20 20 20 17 14 14 12 10 11 13 13 14 15 15 17 19 21 21 23 24 25 25 26 27 27 28 28 28 29 29 30 30 30 30 32 34 35 37 38 38
16 16 19 22 22 21 18 16 15 13 10 10 11 10 10 11 12 14 16 19 22 23 25 26 27 28 29 30 30 30 30 32 32 33 34 34 35 36 38 39 40 41 42
17 17 20 23 23 23 21 19 17 15 12 12 12 12 13 14 14 14 15 16 18 20 21 22 24 27 29 30 31 32 33 33 34 35 36 37 38 39 40 42 43 44 44
19 19 21 25 26 25 23 21 20 18 16 14 15 15 15 17 18 18 18 18 19 20 21 22 23 25 27 30 31 32 34 35 36 37 38 40 40 41 42 42 41 41 39
21 21 22 26 27 26 25 23 23 21 19 18 18 19 20 22 23 23 23 23 24 25 25 26 27 28 30 31 32 33 34 36 37 37 39 39 39 39 38 37 35 34 34
22 22 23 26 28 28 27 25 24 22 21 21 22 24 26 27 28 29 29 28 28 29 30 30 31 32 34 35 35 36 37 37 37 37 38 37 37 37 36 35 35 36 36
25 23 23 25 28 29 28 27 25 25 24 24 25 25 27 27 28 31 33 32 32 32 32 33 34 36 37 37 37 37 38 37 37 36 36 36 36 37 38 38 39 40 40
26 25 25 24 25 26 28 28 27 28 27 26 25 26 27 27 29 32 35 34 33 33 33 34 35 36 36 35 34 34 33 33 34 34 35 36 37 38 39 40 42 42 42
26 27 27 26 25 23 25 27 28 30 29 28 27 28 29 30 32 32 30 29 30 32 33 34 35 36 35 34 33 33 34 35 35 36 37 38 39 40 40 41 43 44 46
26 26 27 27 25 23 23 24 27 30 29 27 28 29 30 31 31 28 26 26 28 30 32 35 36 37 36 35 34 35 36 37 37 38 40 41 42 42 43 44 46 48 49
25 26 25 26 25 23 23 23 25 26 26 26 27 29 31 31 28 26 26 28 30 33 35 38 40 39 37 36 36 37 38 39 40 41 42 43 44 45 47 48 49 51 53
26 26 25 24 24 23 22 22 23 23 24 25 26 28 30 29 27 28 30 33 35 37 39 41 42 41 39 38 38 39 40 41 41 43 44 46 47 49 51 54 56 59 61
27 26 24 22 23 23 22 21 22 23 26 27 28 30 29 29 30 32 34 37 39 40 41 43 43 42 40 38 38 39 41 42 43 45 48 51 53 56 59 61 64 65 67
28 26 24 21 23 24 23 21 22 25 26 28 29 30 29 29 32 35 38 41 42 42 43 43 41 40 39 38 38 40 43 45 48 51 54 56 59 63 66 68 69 70 71
27 27 25 23 23 24 23 23 25 27 27 28 27 27 28 30 34 38 42 43 43 43 42 39 37 37 39 41 42 44 45 47 51 55 58 61 64 66 68 70 71 72 73
28 28 27 25 24 26 26 27 28 28 27 27 27 29 32 35 39 42 43 42 42 40 37 37 38 40 43 46 48 50 52 53 54 56 60 64 66 67 68 69 70 72 74
28 28 28 27 27 27 29 30 30 29 28 28 30 33 36 38 40 41 41 40 39 38 39 40 42 44 46 49 53 58 61 65 67 66 63 63 64 66 67 69 71 73 75
28 28 28 29 29 30 32 32 30 29 30 31 34 37 39 40 40 40 39 39 39 40 41 44 46 48 51 54 57 60 64 68 72 74 73 69 66 66 67 70 74 78 81
29 29 29 29 29 30 32 31 30 31 32 34 37 39 40 40 39 38 39 39 40 41 43 46 49 52 56 59 62 64 66 68 68 70 72 73 73 72 73 77 82 86 90
Wind_Direction
277 279 283 287 289 293 297 301 304 310 311 308 307 305 299 283 270 268 264 261 260 256 253 255 254 254 258 258 258 259 260 265 268 268 271 274 270 266 271 282 293 300 298
276 282 288 289 290 293 296 299 306 313 311 306 300 300 296 279 265 263 258 256 257 256 253 253 254 255 256 255 256 257 259 264 266 268 271 274 271 267 270 273 277 284 290
275 283 287 288 287 289 290 294 305 311 306 303 296 291 292 282 263 257 250 248 251 251 248 249 252 253 253 253 256 259 263 265 265 267 269 270 268 266 267 269 270 272 277
273 280 284 283 281 283 284 289 300 304 303 300 295 287 286 283 266 255 246 245 247 249 252 256 259 259 260 261 263 264 265 264 263 264 267 266 263 262 264 268 270 270 272
274 279 278 274 274 277 277 284 293 297 299 296 291 283 279 281 273 258 251 249 250 252 256 261 265 267 268 269 269 269 268 266 264 265 268 267 262 261 263 267 269 271 274
272 274 272 267 267 271 271 280 285 287 290 294 292 283 273 272 277 276 268 262 260 262 264 267 271 272 272 272 272 271 271 270 269 270 272 269 262 259 261 264 267 270 273
265 267 265 258 258 262 262 268 276 281 289 294 294 288 277 271 269 271 274 274 273 274 274 276 278 279 280 278 275 274 274 273 273 273 271 268 264 261 261 263 266 269 272
263 261 257 250 251 254 253 256 263 271 282 292 293 290 284 280 276 275 276 277 277 278 278 278 280 281 282 281 281 280 278 274 272 270 268 266 264 265 265 266 268 270 273
264 260 255 248 248 249 248 248 253 261 265 277 288 297 301 299 294 290 286 283 279 277 277 279 280 279 278 278 277 277 276 275 273 272 272 271 269 268 269 270 271 273 274
265 262 252 247 245 244 244 245 248 256 255 264 279 294 303 307 309 308 304 297 291 287 285 284 283 281 279 276 274 274 274 274 274 274 274 275 275 275 275 276 277 276 275
265 267 254 247 243 241 244 245 245 252 252 259 275 287 294 300 305 306 303 297 292 289 288 288 287 285 283 281 278 277 276 276 277 278 279 280 280 280 280 280 279 278 276
269 270 262 251 246 244 245 246 244 248 250 256 269 282 288 293 298 301 301 297 294 293 292 291 290 288 287 285 283 281 280 279 280 280 281 282 283 282 282 281 281 280 279
264 265 265 258 251 249 248 246 245 248 253 258 267 277 283 288 295 298 298 296 295 294 294 293 292 292 291 289 285 282 281 281 281 281 282 283 283 283 284 283 282 280 279
260 263 263 262 257 255 254 250 248 252 256 260 267 278 284 292 298 299 296 294 294 294 295 296 297 297 297 295 291 287 284 284 284 284 283 283 282 282 281 280 279 277 276
260 266 266 263 259 257 257 255 252 254 259 264 272 279 287 295 300 299 295 292 292 293 294 297 299 300 299 296 293 290 287 285 283 282 281 280 279 278 278 278 278 278 277
255 262 266 263 258 258 257 255 253 255 262 269 273 280 287 292 299 298 296 293 290 291 293 297 301 301 299 294 291 289 288 286 284 284 283 282 281 279 278 277 276 276 275
250 258 263 262 259 256 256 256 255 257 263 271 276 283 289 295 299 298 298 297 295 294 296 299 302 301 297 293 290 288 287 286 285 284 284 284 283 282 281 280 279 278 278
248 255 262 262 256 253 254 258 261 263 268 275 282 287 293 297 299 299 302 302 301 300 301 302 302 301 297 293 290 288 287 286 286 284 284 283 283 283 284 284 284 283 282
246 253 262 260 252 249 254 260 263 267 272 279 287 292 295 295 296 298 300 301 301 301 302 302 300 298 295 291 289 288 287 287 287 286 286 286 286 286 286 286 285 285 284
243 250 258 256 244 245 254 262 265 271 277 285 291 295 293 289 290 293 296 298 298 300 300 298 296 294 292 290 289 289 288 288 287 287 287 288 288 288 287 287 287 287 286
244 249 255 252 240 244 255 263 268 273 281 289 292 294 292 289 290 294 297 298 298 299 299 297 295 293 291 290 290 290 291 291 292 292 292 292 292 292 292 291 291 290 289
245 249 253 254 247 248 255 262 267 274 284 291 292 293 294 294 295 297 298 298 299 300 299 298 296 295 294 292 292 292 292 294 295 296 296 295 294 294 293 292 291 289 288
245 248 252 256 255 252 254 259 266 276 286 293 295 296 298 298 298 298 299 300 301 300 300 298 297 297 297 297 297 297 296 295 293 294 294 294 293 293 292 291 290 290 290
243 247 251 254 256 254 255 260 266 276 285 291 295 296 297 297 297 298 299 300 299 299 299 300 300 300 300 300 300 300 300 300 298 296 295 295 294 293 293 293 293 293 293
241 246 249 252 255 256 257 260 266 275 282 289 293 294 295 296 296 297 298 298 299 301 302 303 303 302 301 300 300 300 300 300 300 300 299 297 297 296 296 297 297 297 296
240 244 248 251 254 255 256 260 266 273 281 287 291 293 294 294 295 296 297 298 299 301 302 302 302 301 301 301 301 301 301 301 300 300 300 300 300 300 300 300 300 300 299
Height
5858 5858 5858 5857 5857 5856 5856 5855 5853 5852 5851 5851 5850 5850 5850 5850 5850 5850 5851 5851 5851 5851 5851 5851 5851 5851 5851 5851 5851 5850 5849 5848 5847 5846 5845 5844 5842 5841 5840 5839 5837 5836 5835
5855 5855 5855 5854 5854 5853 5853 5852 5850 5849 5849 5848 5848 5847 5847 5847 5847 5848 5848 5848 5848 5848 5848 5847 5847 5847 5847 5846 5846 5846 5845 5844 5844 5842 5842 5841 5839 5838 5837 5836 5835 5834 5832
5851 5852 5852 5851 5850 5850 5850 5850 5849 5848 5847 5846 5846 5845 5845 5845 5845 5845 5844 5844 5844 5844 5844 5843 5843 5842 5842 5842 5841 5842 5841 5840 5839 5838 5837 5836 5835 5834 5834 5833 5832 5831 5829
5848 5849 5849 5848 5847 5847 5848 5848 5847 5846 5845 5844 5844 5843 5843 5842 5842 5841 5841 5840 5841 5841 5840 5840 5839 5839 5838 5838 5837 5838 5836 5835 5835 5833 5832 5831 5830 5830 5829 5829 5828 5827 5826
5844 5845 5845 5844 5844 5844 5845 5845 5845 5844 5843 5842 5841 5841 5841 5841 5839 5838 5838 5838 5838 5838 5837 5837 5836 5836 5835 5834 5834 5833 5832 5830 5830 5828 5827 5826 5826 5825 5824 5824 5824 5822 5821
5841 5841 5841 5841 5841 5841 5842 5843 5842 5841 5841 5840 5839 5839 5839 5838 5837 5836 5835 5835 5835 5835 5835 5834 5834 5833 5832 5830 5829 5828 5826 5826 5825 5823 5823 5821 5821 5820 5819 5819 5818 5817 5816
5837 5837 5837 5838 5838 5838 5839 5840 5840 5839 5839 5838 5837 5837 5837 5836 5835 5834 5833 5833 5832 5832 5831 5831 5830 5829 5828 5826 5825 5823 5821 5821 5820 5818 5818 5816 5815 5815 5814 5813 5812 5811 5811
5834 5834 5834 5834 5834 5835 5837 5837 5837 5837 5836 5835 5835 5835 5835 5834 5832 5831 5830 5829 5829 5828 5828 5827 5825 5824 5823 5822 5820 5818 5817 5816 5814 5813 5812 5811 5810 5809 5808 5807 5806 5804 5803
5831 5831 5831 5831 5831 5832 5833 5834 5834 5834 5834 5834 5834 5833 5832 5831 5830 5828 5826 5825 5825 5824 5823 5822 5820 5819 5818 5817 5815 5813 5811 5810 5808 5806 5805 5804 5803 5802 5800 5799 5797 5796 5794
5827 5828 5828 5828 5828 5829 5830 5831 5831 5831 5831 5831 5831 5831 5830 5829 5827 5825 5824 5822 5821 5819 5818 5816 5814 5813 5812 5810 5808 5806 5804 5803 5801 5799 5798 5796 5795 5794 5792 5791 5789 5787 5785
5824 5824 5823 5824 5824 5825 5826 5826 5827 5828 5827 5828 5828 5828 5827 5826 5824 5822 5820 5819 5817 5815 5813 5811 5809 5807 5806 5804 5802 5800 5798 5796 5794 5792 5790 5788 5787 5785 5783 5781 5779 5776 5774
5820 5820 5819 5819 5820 5820 5821 5822 5824 5824 5824 5824 5824 5824 5823 5821 5819 5818 5816 5814 5812 5811 5809 5807 5804 5802 5800 5798 5795 5793 5791 5788 5786 5784 5782 5780 5778 5776 5773 5771 5769 5767 5766
5815 5816 5815 5815 5815 5816 5817 5818 5820 5821 5820 5820 5820 5820 5819 5817 5815 5813 5811 5809 5808 5806 5804 5801 5799 5796 5794 5791 5788 5785 5783 5781 5778 5776 5774 5771 5769 5767 5765 5763 5761 5760 5758
5809 5810 5811 5811 5811 5812 5813 5814 5815 5817 5817 5817 5816 5815 5814 5813 5810 5808 5805 5803 5802 5800 5798 5795 5792 5789 5786 5783 5780 5777 5775 5773 5771 5769 5766 5763 5761 5759 5756 5754 5752 5751 5749
5804 5804 5805 5807 5807 5808 5808 5810 5811 5812 5812 5812 5812 5810 5809 5807 5805 5802 5799 5797 5796 5794 5792 5789 5786 5782 5779 5776 5773 5770 5768 5765 5763 5761 5758 5756 5753 5751 5748 5745 5743 5741 5739
5798 5798 5799 5801 5802 5803 5804 5805 5806 5807 5807 5807 5806 5806 5804 5802 5799 5796 5793 5791 5790 5788 5785 5783 5779 5775 5772 5769 5766 5763 5761 5758 5756 5753 5750 5747 5745 5742 5739 5737 5734 5732 5729
5793 5793 5793 5794 5796 5798 5799 5800 5801 5801 5801 5801 5801 5800 5798 5795 5792 5789 5787 5785 5783 5781 5778 5775 5772 5768 5765 5762 5759 5756 5753 5751 5748 5745 5742 5739 5736 5733 5730 5727 5725 5722 5719
5787 5788 5788 5789 5791 5793 5794 5795 5795 5796 5796 5796 5795 5793 5791 5788 5785 5783 5781 5779 5777 5775 5772 5768 5764 5761 5758 5755 5752 5748 5745 5743 5740 5737 5733 5730 5727 5724 5720 5717 5713 5710 5707
5781 5782 5783 5784 5785 5787 5788 5789 5790 5790 5790 5790 5788 5786 5784 5781 5778 5776 5775 5773 5770 5767 5764 5760 5757 5753 5750 5747 5744 5740 5737 5734 5730 5727 5724 5720 5716 5712 5709 5705 5701 5697 5693
5775 5777 5778 5779 5780 5781 5782 5784 5784 5785 5784 5783 5781 5779 5776 5774 5772 5770 5768 5765 5763 5759 5756 5752 5747 5744 5741 5739 5736 5732 5728 5724 5721 5717 5713 5709 5704 5700 5695 5691 5686 5682 5677
5768 5770 5772 5774 5775 5776 5777 5778 5779 5779 5778 5776 5774 5772 5769 5767 5765 5763 5760 5757 5754 5750 5746 5742 5738 5734 5731 5729 5726 5723 5718 5714 5711 5705 5701 5696 5691 5685 5679 5673 5668 5663 5658
5761 5762 5765 5767 5769 5770 5771 5772 5773 5773 5771 5769 5767 5765 5763 5761 5758 5755 5752 5748 5744 5740 5736 5732 5728 5725 5721 5719 5717 5714 5711 5707 5700 5694 5688 5681 5676 5670 5664 5657 5651 5645 5639
5754 5756 5758 5760 5761 5763 5764 5766 5766 5766 5764 5762 5761 5759 5756 5754 5750 5747 5743 5739 5734 5730 5726 5723 5720 5716 5712 5707 5703 5699 5696 5693 5692 5688 5680 5670 5663 5656 5649 5642 5635 5628 5621
5748 5750 5752 5753 5755 5756 5758 5759 5759 5758 5756 5755 5753 5751 5749 5746 5742 5738 5733 5729 5725 5721 5717 5713 5710 5706 5702 5696 5690 5684 5678 5672 5667 5667 5666 5657 5648 5640 5632 5624 5616 5608 5601
5741 5743 5746 5747 5748 5750 5751 5751 5751 5750 5749 5747 5745 5743 5740 5736 5733 5729 5724 5720 5716 5712 5708 5703 5699 5694 5690 5684 5679 5673 5665 5656 5647 5640 5639 5636 5630 5622 5613 5605 5595 5586 5577
5735 5737 5739 5741 5742 5743 5744 5744 5743 5742 5741 5739 5737 5734 5730 5727 5723 5719 5715 5711 5707 5703 5698 5693 5688 5683 5677 5670 5663 5656 5649 5641 5633 5624 5618 5613 5607 5601 5593 5583 5571 5560 5549